Location: site
(53.0000°N, 23.0500°E)
Time: 17:09:09
(UTC+01:00)

SAOCOM 1-A - Pass Details

Date: 21 January 2020
Orbit: 621 x 623 km, 97.9° (Epoch: 25 February)

Event Time Altitude Azimuth Distance (km) Brightness Sun altitude
Exits shadow 18:26:29 15° 6° (N) 1,717 ? -22.8°
Maximum altitude 18:30:02 57° 290° (WNW) 737 ? -23.4°
Drops below altitude 10° 18:34:17 10° 212° (SSW) 1,990 ? -24.0°
Sets 18:36:29 0° 208° (SSW) 2,892 ? -24.3°
